Location: Moscow
(55.7500°N, 37.5830°E)
Time: 16:15:55
(UTC+03:00)

A-11 Canister half - Pass Details

Date: 05 December 2021
Orbit: 1516 x 1684 km, 47.2° (Epoch: 19 January)

Event Time Altitude Azimuth Distance (km) Brightness Sun altitude
Rises 14:05:57 0° 283° (WNW) 4,899 11.8 8.7°
Reaches altitude 10° 14:10:06 10° 269° (W) 3,928 11.6 8.4°
Maximum altitude 14:16:52 21° 226° (SW) 3,163 12.2 8.0°
Drops below altitude 10° 14:23:40 10° 183° (S) 3,940 12.6 7.6°
Sets 14:27:53 0° 169° (S) 4,919 12.5 7.3°
